User: anonymous   Login
Location: Trois-Rivi�res
(46.3500°N, 72.5500°W)
Time: 01:14:04
(UTC-04:00)
Language:

N. Korean satellite - Orbit

View from above orbital plane
View from above orbital plane
View from above satellite
View from above satellite

Ground track
Ground track

The orbit data is extracted from the following two-line orbital elements,

1 39026U 12072A   18109.55881865 +.00001314 +00000-0 +51892-4 0  9995
2 39026 097.2128 121.9201 0039751 168.6222 191.5926 15.26553729296655
Epoch (UTC): 19 April 2018 13:24:41
Eccentricity: 0.0039751
inclination: 97.2128°
perigee height: 459 km
apogee height: 513 km
right ascension of ascending node: 121.9201°
argument of perigee: 168.6222°
revolutions per day: 15.26553729
mean anomaly at epoch: 191.5926°
orbit number at epoch: 29665

The dashed part of the orbit path shows where the satellite is in the earth's shadow,  

DLR